Regional Weather Roundup
Issued by NWS Midland/Odessa, TX

Skip options and go directly to product.
Home | Oldest Version | Previous Version | Current Version | All | Text Only | Save Text | Print | Product List | Glossary On

Skip product version selection by date and time.   
666
ASUS44 KMAF 050110
RWRMAF
MIDLAND AREA WEATHER ROUNDUP
NATIONAL WEATHER SERVICE MIDLAND TX
800 PM CDT WED MAY 04 2016

...IN SOUTHWEST TEXAS AND SOUTHEAST NEW MEXICO...

CITY           SKY/WX    TMP DP  RH WIND       PRES   REMARKS
ALPINE         PTCLDY    76  19  12 E8        30.21S
ANDREWS        FAIR      80  26  13 NE5       30.09F
ARTESIA        CLEAR     81  27  13 CALM      30.11S
BIG SPRING     CLEAR     78  33  20 NE6       30.09S
CARLSBAD       CLEAR     81  26  13 CALM      30.09F
DRYDEN           N/A     85  30  13 NE8       30.02F
FORT STOCKTON  CLEAR     80  31  16 SE5       30.08F
GUAD PASS      CLEAR     69  19  15 E18       30.21S
HOBBS            N/A     81  23  12 NE5       30.12S
MARFA          CLEAR     74  21  13 E12       30.18S
MIDLAND AIRPK  CLEAR     82  25  12 CALM      30.08S
MIDLAND INTL   CLEAR     82  24  12 N6        30.07F
ODESSA         CLEAR     83  24  11 E5        30.08F
PECOS          CLEAR     83  24  11 NE5       30.06S
PRESIDIO       FAIR      87  29  12 MISG      30.00F
SEMINOLE       CLEAR     80  26  14 CALM      30.10F
SNYDER           N/A     79  37  22 NE7       30.07S
WINK           CLEAR     83  26  12 E3        30.05F
$$
...OTHER STATIONS IN TEXAS...

CITY           SKY/WX    TMP DP  RH WIND       PRES   REMARKS
ABILENE        CLEAR     76  42  29 NE5       30.05S
AMARILLO       CLEAR     72  40  31 NE6       30.13S
AUSTIN         PTCLDY    75  54  47 N6        29.97S
BROWNSVILLE    CLEAR     73  59  61 SE7       30.01S
CORPUS CHRISTI PTCLDY    77  56  48 S12       29.97S
DALLAS FTW     CLEAR     77  50  38 NW8       29.96S
DEL RIO        CLEAR     82  51  34 SE5       29.98S
EL PASO        CLEAR     83  21  10 E6        30.06F
HOUSTON INT    CLEAR     76  52  43 NW5       29.94S
LUBBOCK        CLEAR     79  27  14 N7        30.09S
SAN ANGELO     CLEAR     77  44  30 N6        30.05S
SAN ANTONIO    CLEAR     82  45  27 N9        29.98S
WACO           CLEAR     74  53  48 N5        29.97F
WICHITA FALLS  NOT AVBL
$$
...OTHER LOCATIONS IN NEW MEXICO...

CITY           SKY/WX    TMP DP  RH WIND       PRES   REMARKS
ALAMAGORDO     CLEAR     81  18   9 W10       30.10S
ALBUQUERQUE    PTCLDY    76  20  12 W6        30.15F
CANNON AFB     CLEAR     76  27  16 N2        30.14F
CLOVIS         CLEAR     73  39  29 E5        30.15F
HOLLOMAN AFB   CLEAR     81  15   8 W8        30.07F
ROSWELL        CLEAR     80  17   9 CALM      30.10F
RUIDOSO          N/A     64  19  17 SE10      30.28S
SANTA FE       CLEAR     72  17  12 W7        30.20F
TRUTH OR CONSE SUNNY     79  23  12 S10       30.10F
TUCUMCARI      CLEAR     77  27  15 S7        30.10F
$$

USA.gov is the U.S. government's official web portal to all federal, state and local government web resources and services.